Tracking 29892 objects as of 21-Nov-2024
HD Live streaming from Space Station
objects crossing your sky now

STARLINK-1363

Track STARLINK-1363 now!
10-day predictions
STARLINK-1363 is classified as:


NORAD ID: 45568
Int'l Code: 2020-025AP
Perigee: 553.3 km
Apogee: 555.1 km
Inclination: 53.1 °
Period: 95.6 minutes
Semi major axis: 6925 km
RCS: Unknown
Launch date: April 22, 2020
Source: United States (US)
Launch site: AIR FORCE EASTERN TEST RANGE (AFETR)
Your satellite tracking list
Your tracking list is empty




NASA's NSSDC Master Catalog

Two Line Element Set (TLE):
1 45568U 20025AP  24325.26009020  .00018358  00000-0  12466-2 0  9998
2 45568  53.0530  56.6559 0001285  72.0029 288.1100 15.06444510253851
Source of the keplerian elements: AFSPC